Time,TemperatureF,DewpointF,PressureIn,WindDirection,WindDirectionDegrees,WindSpeedMPH,WindSpeedGustMPH,Humidity,HourlyPrecipIn,Conditions,Clouds,dailyrainin,SoftwareType,DateUTC
2013-02-23 00:00:00,44.7,43.6,30.01,ESE,123,0.0,0.0,96,0.00,,,0.00,Wunderground v.1.15,2013-02-23 05:00:00,
2013-02-23 00:10:00,44.7,43.6,30.02,East,92,0.0,0.0,96,0.00,,,0.00,Wunderground v.1.15,2013-02-23 05:10:00,
2013-02-23 00:15:00,44.7,43.6,30.02,NNW,336,1.0,1.0,96,0.00,,,0.00,Wunderground v.1.15,2013-02-23 05:15:00,
2013-02-23 00:19:00,44.7,43.6,30.02,WSW,243,1.0,1.0,96,0.00,,,0.00,Wunderground v.1.15,2013-02-23 05:19:00,
2013-02-23 00:25:00,44.7,43.6,30.02,West,261,1.0,1.0,96,0.00,,,0.00,Wunderground v.1.15,2013-02-23 05:25:00,
2013-02-23 00:34:00,44.7,43.6,30.00,SE,146,0.0,1.0,96,0.00,,,0.00,Wunderground v.1.15,2013-02-23 05:34:00,
2013-02-23 00:39:00,44.7,43.6,30.00,SE,146,0.0,0.0,96,0.00,,,0.00,Wunderground v.1.15,2013-02-23 05:39:00,
2013-02-23 00:44:00,44.7,43.6,30.00,SE,146,0.0,0.0,96,0.00,,,0.00,Wunderground v.1.15,2013-02-23 05:44:00,
2013-02-23 00:50:00,44.7,43.6,30.00,SSE,147,0.0,0.0,96,0.00,,,0.00,Wunderground v.1.15,2013-02-23 05:50:00,
2013-02-23 01:00:00,44.7,43.6,30.00,SSE,147,0.0,0.0,96,0.00,,,0.01,Wunderground v.1.15,2013-02-23 06:00:00,
2013-02-23 01:10:00,44.8,43.7,29.98,SSW,193,0.0,0.0,96,0.05,,,0.02,Wunderground v.1.15,2013-02-23 06:10:00,
2013-02-23 01:20:00,44.8,43.7,29.98,SSW,193,0.0,0.0,96,0.13,,,0.04,Wunderground v.1.15,2013-02-23 06:20:00,
2013-02-23 01:25:00,44.8,43.7,29.98,SSW,193,0.0,0.0,96,0.08,,,0.04,Wunderground v.1.15,2013-02-23 06:25:00,
2013-02-23 01:35:00,44.8,43.7,29.99,SSW,193,0.0,0.0,96,0.00,,,0.04,Wunderground v.1.15,2013-02-23 06:35:00,
2013-02-23 01:44:00,44.8,43.7,29.99,SSW,193,0.0,0.0,96,0.00,,,0.04,Wunderground v.1.15,2013-02-23 06:44:00,
2013-02-23 01:49:00,44.8,43.7,30.00,SSW,193,0.0,0.0,96,0.00,,,0.04,Wunderground v.1.15,2013-02-23 06:49:00,
2013-02-23 01:55:00,44.8,43.7,30.01,SSW,193,0.0,0.0,96,0.00,,,0.05,Wunderground v.1.15,2013-02-23 06:55:00,
2013-02-23 02:00:00,44.8,43.7,30.01,SSW,193,0.0,0.0,96,0.09,,,0.06,Wunderground v.1.15,2013-02-23 07:00:00,
2013-02-23 02:10:00,44.8,43.7,30.00,SSW,193,0.0,0.0,96,0.16,,,0.09,Wunderground v.1.15,2013-02-23 07:10:00,
2013-02-23 02:15:00,44.8,43.7,30.00,SSW,193,0.0,0.0,96,0.13,,,0.10,Wunderground v.1.15,2013-02-23 07:15:00,
2013-02-23 02:24:00,44.8,43.7,29.99,SSW,193,0.0,0.0,96,0.13,,,0.13,Wunderground v.1.15,2013-02-23 07:24:00,
2013-02-23 02:29:00,44.8,43.7,29.99,SSW,193,0.0,0.0,96,0.18,,,0.14,Wunderground v.1.15,2013-02-23 07:29:00,
2013-02-23 02:34:00,44.8,43.7,29.99,SSW,193,0.0,0.0,96,0.07,,,0.14,Wunderground v.1.15,2013-02-23 07:34:00,
2013-02-23 02:40:00,44.8,43.7,29.98,SSW,193,0.0,0.0,96,0.04,,,0.14,Wunderground v.1.15,2013-02-23 07:40:00,
2013-02-23 02:45:00,44.8,43.7,29.98,SSW,193,0.0,0.0,96,0.00,,,0.14,Wunderground v.1.15,2013-02-23 07:45:00,
2013-02-23 02:50:00,44.7,43.6,29.98,SSW,193,0.0,0.0,96,0.00,,,0.14,Wunderground v.1.15,2013-02-23 07:50:00,
2013-02-23 02:55:00,44.8,43.7,29.97,SSW,193,0.0,0.0,96,0.00,,,0.14,Wunderground v.1.15,2013-02-23 07:55:00,
2013-02-23 03:00:00,44.8,43.7,29.95,East,91,0.0,1.0,96,0.00,,,0.14,Wunderground v.1.15,2013-02-23 08:00:00,
2013-02-23 03:09:00,44.7,43.6,29.94,SSE,160,0.0,0.0,96,0.00,,,0.14,Wunderground v.1.15,2013-02-23 08:09:00,
2013-02-23 03:14:00,44.7,43.6,29.94,SSE,160,0.0,0.0,96,0.00,,,0.14,Wunderground v.1.15,2013-02-23 08:14:00,
2013-02-23 03:24:00,44.6,43.5,29.94,SSE,160,0.0,0.0,96,0.00,,,0.14,Wunderground v.1.15,2013-02-23 08:24:00,
2013-02-23 03:30:00,44.6,43.5,29.95,SSE,160,0.0,0.0,96,0.00,,,0.14,Wunderground v.1.15,2013-02-23 08:30:00,
2013-02-23 03:35:00,44.6,43.5,29.94,SSE,160,0.0,0.0,96,0.00,,,0.14,Wunderground v.1.15,2013-02-23 08:35:00,
2013-02-23 03:40:00,44.6,43.5,29.93,SSE,160,0.0,0.0,96,0.00,,,0.15,Wunderground v.1.15,2013-02-23 08:40:00,
2013-02-23 03:45:00,44.5,43.4,29.94,SSE,160,0.0,0.0,96,0.00,,,0.15,Wunderground v.1.15,2013-02-23 08:45:00,
2013-02-23 03:55:00,44.5,43.4,29.95,SSE,160,0.0,0.0,96,0.00,,,0.15,Wunderground v.1.15,2013-02-23 08:55:00,
2013-02-23 04:04:00,44.5,43.4,29.93,SSE,160,0.0,0.0,96,0.00,,,0.15,Wunderground v.1.15,2013-02-23 09:04:00,
2013-02-23 04:09:00,44.5,43.4,29.92,SSE,160,0.0,0.0,96,0.00,,,0.15,Wunderground v.1.15,2013-02-23 09:09:00,
2013-02-23 04:15:00,44.5,43.4,29.93,SSE,160,0.0,0.0,96,0.00,,,0.16,Wunderground v.1.15,2013-02-23 09:15:00,
2013-02-23 04:20:00,44.5,43.4,29.93,SSE,160,0.0,0.0,96,0.00,,,0.16,Wunderground v.1.15,2013-02-23 09:20:00,
2013-02-23 04:30:00,44.5,43.4,29.94,SSE,160,0.0,0.0,96,0.00,,,0.16,Wunderground v.1.15,2013-02-23 09:30:00,
2013-02-23 04:35:00,44.4,43.3,29.94,SSE,160,0.0,0.0,96,0.00,,,0.16,Wunderground v.1.15,2013-02-23 09:35:00,
2013-02-23 04:40:00,44.4,43.3,29.93,SSE,160,0.0,0.0,96,0.00,,,0.16,Wunderground v.1.15,2013-02-23 09:40:00,
2013-02-23 04:45:00,44.5,43.4,29.93,SSE,160,0.0,0.0,96,0.00,,,0.16,Wunderground v.1.15,2013-02-23 09:45:00,
2013-02-23 04:54:00,44.5,43.7,29.93,SSE,160,0.0,0.0,97,0.00,,,0.16,Wunderground v.1.15,2013-02-23 09:54:00,
2013-02-23 05:00:00,44.5,43.7,29.94,SSE,160,0.0,0.0,97,0.00,,,0.16,Wunderground v.1.15,2013-02-23 10:00:00,
2013-02-23 05:09:00,44.5,43.7,29.93,SSE,160,0.0,0.0,97,0.00,,,0.16,Wunderground v.1.15,2013-02-23 10:09:00,
2013-02-23 05:15:00,44.5,43.7,29.93,SSE,160,0.0,0.0,97,0.00,,,0.16,Wunderground v.1.15,2013-02-23 10:15:00,
2013-02-23 05:20:00,44.5,43.7,29.93,SSE,160,0.0,0.0,97,0.00,,,0.16,Wunderground v.1.15,2013-02-23 10:20:00,
2013-02-23 05:25:00,44.5,43.7,29.93,SSE,160,0.0,0.0,97,0.00,,,0.16,Wunderground v.1.15,2013-02-23 10:25:00,
2013-02-23 05:30:00,44.5,43.7,29.93,SSE,160,0.0,0.0,97,0.00,,,0.16,Wunderground v.1.15,2013-02-23 10:30:00,
2013-02-23 05:35:00,44.5,43.7,29.93,SSE,160,0.0,0.0,97,0.00,,,0.16,Wunderground v.1.15,2013-02-23 10:35:00,
2013-02-23 05:40:00,44.5,43.7,29.94,SSE,160,0.0,0.0,97,0.00,,,0.16,Wunderground v.1.15,2013-02-23 10:40:00,
2013-02-23 05:49:00,44.5,43.7,29.93,SSE,160,0.0,0.0,97,0.00,,,0.16,Wunderground v.1.15,2013-02-23 10:49:00,
2013-02-23 05:54:00,44.5,43.7,29.93,SSE,160,0.0,0.0,97,0.00,,,0.16,Wunderground v.1.15,2013-02-23 10:54:00,
2013-02-23 06:00:00,44.5,43.7,29.92,SSE,160,0.0,0.0,97,0.00,,,0.16,Wunderground v.1.15,2013-02-23 11:00:00,
2013-02-23 06:10:00,44.5,43.7,29.92,SSE,160,0.0,0.0,97,0.00,,,0.16,Wunderground v.1.15,2013-02-23 11:10:00,
2013-02-23 06:15:00,44.4,43.6,29.93,SSE,160,0.0,0.0,97,0.00,,,0.16,Wunderground v.1.15,2013-02-23 11:15:00,
2013-02-23 06:20:00,44.4,43.6,29.93,SSE,160,0.0,0.0,97,0.00,,,0.16,Wunderground v.1.15,2013-02-23 11:20:00,
2013-02-23 06:25:00,44.4,43.6,29.93,SSE,160,0.0,0.0,97,0.00,,,0.16,Wunderground v.1.15,2013-02-23 11:25:00,
2013-02-23 06:34:00,44.3,43.5,29.93,SSE,160,0.0,0.0,97,0.00,,,0.16,Wunderground v.1.15,2013-02-23 11:34:00,
2013-02-23 06:39:00,44.3,43.5,29.93,SSE,160,0.0,0.0,97,0.00,,,0.16,Wunderground v.1.15,2013-02-23 11:39:00,
2013-02-23 06:49:00,44.3,43.5,29.92,SSE,160,0.0,0.0,97,0.00,,,0.16,Wunderground v.1.15,2013-02-23 11:49:00,
2013-02-23 06:54:00,44.3,43.5,29.93,SSE,160,0.0,0.0,97,0.00,,,0.16,Wunderground v.1.15,2013-02-23 11:54:00,
2013-02-23 07:00:00,44.3,43.5,29.93,SSE,160,0.0,0.0,97,0.00,,,0.16,Wunderground v.1.15,2013-02-23 12:00:00,
2013-02-23 07:10:00,44.1,43.3,29.93,SSE,160,0.0,0.0,97,0.00,,,0.16,Wunderground v.1.15,2013-02-23 12:10:00,
2013-02-23 07:15:00,44.1,43.3,29.93,SSE,160,0.0,0.0,97,0.00,,,0.16,Wunderground v.1.15,2013-02-23 12:15:00,
2013-02-23 07:20:00,44.1,43.3,29.92,SSE,160,0.0,0.0,97,0.00,,,0.16,Wunderground v.1.15,2013-02-23 12:20:00,
2013-02-23 07:29:00,44.0,43.2,29.93,SE,124,0.0,0.0,97,0.00,,,0.16,Wunderground v.1.15,2013-02-23 12:29:00,
2013-02-23 07:34:00,44.0,43.2,29.93,SE,124,0.0,0.0,97,0.00,,,0.16,Wunderground v.1.15,2013-02-23 12:34:00,
2013-02-23 07:39:00,44.0,43.2,29.93,SE,124,0.0,0.0,97,0.00,,,0.16,Wunderground v.1.15,2013-02-23 12:39:00,
2013-02-23 07:45:00,44.0,43.2,29.93,SE,124,0.0,0.0,97,0.00,,,0.16,Wunderground v.1.15,2013-02-23 12:45:00,
2013-02-23 07:49:00,43.9,43.1,29.94,SE,124,0.0,0.0,97,0.00,,,0.16,Wunderground v.1.15,2013-02-23 12:49:00,
2013-02-23 07:55:00,44.0,43.2,29.94,SE,124,0.0,0.0,97,0.00,,,0.16,Wunderground v.1.15,2013-02-23 12:55:00,
2013-02-23 08:00:00,44.0,43.2,29.94,SE,124,0.0,0.0,97,0.00,,,0.16,Wunderground v.1.15,2013-02-23 13:00:00,
2013-02-23 08:09:00,44.1,43.3,29.94,SE,124,0.0,0.0,97,0.00,,,0.16,Wunderground v.1.15,2013-02-23 13:09:00,
2013-02-23 08:14:00,44.2,43.4,29.94,SE,124,0.0,0.0,97,0.00,,,0.16,Wunderground v.1.15,2013-02-23 13:14:00,
2013-02-23 08:19:00,44.3,43.5,29.94,NNE,28,0.0,1.0,97,0.00,,,0.16,Wunderground v.1.15,2013-02-23 13:19:00,
2013-02-23 08:24:00,44.4,43.6,29.93,NNE,25,0.0,1.0,97,0.00,,,0.16,Wunderground v.1.15,2013-02-23 13:24:00,
2013-02-23 08:34:00,44.6,43.8,29.94,NNE,31,1.0,1.0,97,0.00,,,0.16,Wunderground v.1.15,2013-02-23 13:34:00,
2013-02-23 08:39:00,44.7,43.9,29.94,NE,40,0.0,1.0,97,0.00,,,0.16,Wunderground v.1.15,2013-02-23 13:39:00,
2013-02-23 08:44:00,44.8,44.0,29.94,NE,36,1.0,1.0,97,0.00,,,0.16,Wunderground v.1.15,2013-02-23 13:44:00,
2013-02-23 08:50:00,44.9,44.1,29.94,NE,36,1.0,1.0,97,0.00,,,0.16,Wunderground v.1.15,2013-02-23 13:50:00,
2013-02-23 08:55:00,44.9,44.1,29.94,East,88,0.0,0.0,97,0.00,,,0.16,Wunderground v.1.15,2013-02-23 13:55:00,
2013-02-23 09:00:00,44.9,44.1,29.94,East,88,0.0,0.0,97,0.00,,,0.16,Wunderground v.1.15,2013-02-23 14:00:00,
2013-02-23 09:10:00,45.1,44.3,29.94,East,88,0.0,0.0,97,0.00,,,0.16,Wunderground v.1.15,2013-02-23 14:10:00,
2013-02-23 09:19:00,45.2,44.4,29.94,East,88,0.0,0.0,97,0.00,,,0.16,Wunderground v.1.15,2013-02-23 14:19:00,
2013-02-23 09:24:00,45.3,44.5,29.94,East,88,0.0,1.0,97,0.00,,,0.16,Wunderground v.1.15,2013-02-23 14:24:00,
2013-02-23 09:29:00,45.4,44.6,29.94,East,88,0.0,0.0,97,0.00,,,0.16,Wunderground v.1.15,2013-02-23 14:29:00,
2013-02-23 09:34:00,45.6,45.1,29.94,East,88,0.0,0.0,98,0.00,,,0.16,Wunderground v.1.15,2013-02-23 14:34:00,
2013-02-23 09:40:00,45.7,45.2,29.94,East,88,0.0,0.0,98,0.00,,,0.16,Wunderground v.1.15,2013-02-23 14:40:00,
2013-02-23 09:45:00,45.8,45.3,29.94,East,88,0.0,1.0,98,0.00,,,0.16,Wunderground v.1.15,2013-02-23 14:45:00,
2013-02-23 09:50:00,45.9,45.4,29.94,East,88,0.0,1.0,98,0.00,,,0.16,Wunderground v.1.15,2013-02-23 14:50:00,
2013-02-23 09:55:00,46.0,45.5,29.93,East,88,0.0,1.0,98,0.00,,,0.16,Wunderground v.1.15,2013-02-23 14:55:00,
2013-02-23 10:00:00,46.1,45.3,29.93,East,88,0.0,0.0,97,0.00,,,0.16,Wunderground v.1.15,2013-02-23 15:00:00,
2013-02-23 10:09:00,46.3,45.8,29.92,East,84,1.0,1.0,98,0.00,,,0.16,Wunderground v.1.15,2013-02-23 15:09:00,
2013-02-23 10:14:00,46.4,45.9,29.92,ESE,102,0.0,1.0,98,0.00,,,0.16,Wunderground v.1.15,2013-02-23 15:14:00,
2013-02-23 10:19:00,46.6,46.1,29.93,ESE,102,0.0,0.0,98,0.00,,,0.16,Wunderground v.1.15,2013-02-23 15:19:00,
2013-02-23 10:25:00,46.8,46.3,29.93,East,87,0.0,0.0,98,0.00,,,0.16,Wunderground v.1.15,2013-02-23 15:25:00,
2013-02-23 10:30:00,47.4,46.9,29.93,ENE,72,1.0,1.0,98,0.00,,,0.16,Wunderground v.1.15,2013-02-23 15:30:00,
2013-02-23 10:35:00,47.8,47.0,29.93,ENE,71,1.0,2.0,97,0.00,,,0.16,Wunderground v.1.15,2013-02-23 15:35:00,
2013-02-23 10:40:00,48.3,47.2,29.93,NE,55,1.0,1.0,96,0.00,,,0.16,Wunderground v.1.15,2013-02-23 15:40:00,
2013-02-23 10:50:00,49.0,47.6,29.93,NE,54,0.0,0.0,95,0.00,,,0.16,Wunderground v.1.15,2013-02-23 15:50:00,
2013-02-23 10:55:00,49.1,47.2,29.93,NE,54,0.0,0.0,93,0.00,,,0.16,Wunderground v.1.15,2013-02-23 15:55:00,
2013-02-23 11:00:00,49.2,47.0,29.92,East,83,0.0,0.0,92,0.00,,,0.16,Wunderground v.1.15,2013-02-23 16:00:00,
2013-02-23 11:09:00,49.3,46.8,29.92,East,85,0.0,0.0,91,0.00,,,0.16,Wunderground v.1.15,2013-02-23 16:09:00,
2013-02-23 11:15:00,49.8,47.3,29.92,East,79,0.0,1.0,91,0.00,,,0.16,Wunderground v.1.15,2013-02-23 16:15:00,
2013-02-23 11:25:00,49.9,47.1,29.92,East,87,1.0,1.0,90,0.00,,,0.16,Wunderground v.1.15,2013-02-23 16:25:00,
2013-02-23 11:30:00,50.1,47.3,29.92,East,81,1.0,1.0,90,0.00,,,0.16,Wunderground v.1.15,2013-02-23 16:30:00,
2013-02-23 11:35:00,50.9,48.1,29.92,East,83,0.0,1.0,90,0.00,,,0.16,Wunderground v.1.15,2013-02-23 16:35:00,
2013-02-23 11:40:00,51.0,47.9,29.92,East,83,0.0,0.0,89,0.00,,,0.16,Wunderground v.1.15,2013-02-23 16:40:00,
2013-02-23 11:45:00,52.0,48.9,29.91,ESE,112,1.0,2.0,89,0.00,,,0.16,Wunderground v.1.15,2013-02-23 16:45:00,
2013-02-23 11:55:00,52.7,48.9,29.91,South,177,0.0,1.0,87,0.00,,,0.16,Wunderground v.1.15,2013-02-23 16:55:00,
2013-02-23 12:04:00,53.7,49.6,29.91,North,2,1.0,2.0,86,0.00,,,0.16,Wunderground v.1.15,2013-02-23 17:04:00,
2013-02-23 12:09:00,53.9,50.1,29.91,North,6,1.0,3.0,87,0.00,,,0.16,Wunderground v.1.15,2013-02-23 17:09:00,
2013-02-23 12:15:00,53.7,49.0,29.91,West,277,1.0,3.0,84,0.00,,,0.16,Wunderground v.1.15,2013-02-23 17:15:00,
2013-02-23 12:20:00,54.3,48.9,29.90,ENE,68,1.0,1.0,82,0.00,,,0.16,Wunderground v.1.15,2013-02-23 17:20:00,
2013-02-23 12:25:00,54.1,48.7,29.90,ENE,70,1.0,1.0,82,0.00,,,0.16,Wunderground v.1.15,2013-02-23 17:25:00,
2013-02-23 12:30:00,54.1,48.4,29.90,West,268,1.0,2.0,81,0.00,,,0.16,Wunderground v.1.15,2013-02-23 17:30:00,
2013-02-23 12:35:00,55.1,49.4,29.90,SSE,160,1.0,2.0,81,0.00,,,0.16,Wunderground v.1.15,2013-02-23 17:35:00,
2013-02-23 12:44:00,56.3,50.2,29.90,SE,131,1.0,3.0,80,0.00,,,0.16,Wunderground v.1.15,2013-02-23 17:44:00,
2013-02-23 12:49:00,56.6,49.8,29.90,SE,135,1.0,1.0,78,0.00,,,0.16,Wunderground v.1.15,2013-02-23 17:49:00,
2013-02-23 12:55:00,56.4,50.0,29.90,ESE,109,1.0,1.0,79,0.00,,,0.16,Wunderground v.1.15,2013-02-23 17:55:00,
2013-02-23 13:00:00,56.7,50.6,29.90,SSW,196,1.0,1.0,80,0.00,,,0.16,Wunderground v.1.15,2013-02-23 18:00:00,
2013-02-23 13:10:00,56.1,49.7,29.89,SE,127,1.0,4.0,79,0.00,,,0.16,Wunderground v.1.15,2013-02-23 18:10:00,
2013-02-23 13:15:00,56.1,49.3,29.89,East,86,3.0,4.0,78,0.00,,,0.16,Wunderground v.1.15,2013-02-23 18:15:00,
2013-02-23 13:20:00,56.5,50.1,29.88,WNW,298,2.0,5.0,79,0.00,,,0.16,Wunderground v.1.15,2013-02-23 18:20:00,
2013-02-23 13:29:00,57.7,50.5,29.88,SE,127,1.0,1.0,77,0.00,,,0.16,Wunderground v.1.15,2013-02-23 18:29:00,
2013-02-23 13:34:00,57.5,50.3,29.87,NW,310,1.0,1.0,77,0.00,,,0.16,Wunderground v.1.15,2013-02-23 18:34:00,
2013-02-23 13:40:00,57.2,49.7,29.88,SE,129,1.0,1.0,76,0.00,,,0.16,Wunderground v.1.15,2013-02-23 18:40:00,
2013-02-23 13:45:00,56.5,48.7,29.87,WSW,239,1.0,1.0,75,0.00,,,0.16,Wunderground v.1.15,2013-02-23 18:45:00,
2013-02-23 13:50:00,57.0,50.2,29.87,WNW,282,1.0,1.0,78,0.00,,,0.16,Wunderground v.1.15,2013-02-23 18:50:00,
2013-02-23 13:55:00,57.3,50.5,29.87,ESE,115,1.0,1.0,78,0.00,,,0.16,Wunderground v.1.15,2013-02-23 18:55:00,
2013-02-23 14:00:00,56.7,49.2,29.86,NNW,347,1.0,1.0,76,0.00,,,0.16,Wunderground v.1.15,2013-02-23 19:00:00,
2013-02-23 14:09:00,57.9,51.1,29.86,SE,125,1.0,1.0,78,0.00,,,0.16,Wunderground v.1.15,2013-02-23 19:09:00,
2013-02-23 14:14:00,58.4,50.5,29.86,NNW,342,1.0,1.0,75,0.00,,,0.16,Wunderground v.1.15,2013-02-23 19:14:00,
2013-02-23 14:19:00,57.9,50.0,29.86,NNW,327,1.0,2.0,75,0.00,,,0.16,Wunderground v.1.15,2013-02-23 19:19:00,
2013-02-23 14:25:00,57.6,50.1,29.86,ESE,115,1.0,2.0,76,0.00,,,0.16,Wunderground v.1.15,2013-02-23 19:25:00,
2013-02-23 14:30:00,57.2,49.3,29.86,ESE,110,1.0,1.0,75,0.00,,,0.16,Wunderground v.1.15,2013-02-23 19:30:00,
2013-02-23 14:35:00,57.4,49.5,29.86,West,277,1.0,1.0,75,0.00,,,0.16,Wunderground v.1.15,2013-02-23 19:35:00,
2013-02-23 14:40:00,57.6,50.1,29.86,NNW,333,1.0,1.0,76,0.00,,,0.16,Wunderground v.1.15,2013-02-23 19:40:00,
2013-02-23 14:45:00,57.6,50.1,29.86,SE,131,1.0,2.0,76,0.00,,,0.16,Wunderground v.1.15,2013-02-23 19:45:00,
2013-02-23 14:50:00,57.3,49.4,29.86,SW,219,1.0,2.0,75,0.00,,,0.16,Wunderground v.1.15,2013-02-23 19:50:00,
2013-02-23 15:00:00,57.1,49.6,29.86,NW,318,1.0,1.0,76,0.00,,,0.16,Wunderground v.1.15,2013-02-23 20:00:00,
2013-02-23 15:10:00,56.6,49.1,29.86,West,268,1.0,1.0,76,0.00,,,0.16,Wunderground v.1.15,2013-02-23 20:10:00,
2013-02-23 15:15:00,56.4,49.3,29.86,SE,131,1.0,2.0,77,0.00,,,0.16,Wunderground v.1.15,2013-02-23 20:15:00,
2013-02-23 15:25:00,56.3,49.2,29.86,West,272,1.0,3.0,77,0.00,,,0.16,Wunderground v.1.15,2013-02-23 20:25:00,
2013-02-23 15:30:00,56.1,49.3,29.86,NNE,32,0.0,2.0,78,0.00,,,0.16,Wunderground v.1.15,2013-02-23 20:30:00,
2013-02-23 15:39:00,55.6,48.8,29.86,South,171,1.0,1.0,78,0.00,,,0.16,Wunderground v.1.15,2013-02-23 20:39:00,
2013-02-23 15:44:00,55.4,49.0,29.86,SE,128,1.0,1.0,79,0.00,,,0.16,Wunderground v.1.15,2013-02-23 20:44:00,
2013-02-23 15:50:00,55.3,48.2,29.86,East,79,1.0,1.0,77,0.00,,,0.16,Wunderground v.1.15,2013-02-23 20:50:00,
2013-02-23 15:54:00,55.1,48.7,29.86,ESE,103,0.0,1.0,79,0.00,,,0.16,Wunderground v.1.15,2013-02-23 20:54:00,
2013-02-23 16:00:00,55.1,49.0,29.85,SSE,162,0.0,2.0,80,0.00,,,0.16,Wunderground v.1.15,2013-02-23 21:00:00,
2013-02-23 16:10:00,55.0,49.3,29.85,ESE,121,0.0,1.0,81,0.00,,,0.16,Wunderground v.1.15,2013-02-23 21:10:00,
2013-02-23 16:15:00,55.0,49.3,29.85,ESE,123,0.0,1.0,81,0.00,,,0.16,Wunderground v.1.15,2013-02-23 21:15:00,
2013-02-23 16:24:00,54.8,49.4,29.85,SSE,156,0.0,0.0,82,0.00,,,0.16,Wunderground v.1.15,2013-02-23 21:24:00,
2013-02-23 16:34:00,54.8,49.1,29.85,SSE,156,0.0,0.0,81,0.00,,,0.16,Wunderground v.1.15,2013-02-23 21:34:00,
2013-02-23 16:39:00,54.7,49.3,29.84,SSE,156,0.0,0.0,82,0.00,,,0.16,Wunderground v.1.15,2013-02-23 21:39:00,
2013-02-23 16:45:00,54.7,49.0,29.84,SSE,156,0.0,0.0,81,0.00,,,0.16,Wunderground v.1.15,2013-02-23 21:45:00,
2013-02-23 16:50:00,54.6,49.2,29.84,SSE,156,0.0,0.0,82,0.00,,,0.16,Wunderground v.1.15,2013-02-23 21:50:00,
2013-02-23 16:55:00,54.4,49.0,29.84,SE,144,0.0,0.0,82,0.00,,,0.16,Wunderground v.1.15,2013-02-23 21:55:00,
2013-02-23 17:00:00,54.3,48.9,29.84,SE,144,0.0,0.0,82,0.00,,,0.16,Wunderground v.1.15,2013-02-23 22:00:00,
2013-02-23 17:09:00,54.3,48.9,29.84,SE,144,0.0,0.0,82,0.00,,,0.16,Wunderground v.1.15,2013-02-23 22:09:00,
2013-02-23 17:14:00,54.4,49.0,29.84,SE,145,0.0,0.0,82,0.00,,,0.16,Wunderground v.1.15,2013-02-23 22:14:00,
2013-02-23 17:20:00,54.4,48.7,29.84,SE,145,0.0,0.0,81,0.00,,,0.16,Wunderground v.1.15,2013-02-23 22:20:00,
2013-02-23 17:25:00,54.3,48.9,29.83,South,176,0.0,2.0,82,0.00,,,0.16,Wunderground v.1.15,2013-02-23 22:25:00,
2013-02-23 17:34:00,54.3,49.2,29.83,South,183,0.0,0.0,83,0.00,,,0.16,Wunderground v.1.15,2013-02-23 22:34:00,
2013-02-23 17:39:00,54.2,49.1,29.83,South,183,0.0,0.0,83,0.00,,,0.16,Wunderground v.1.15,2013-02-23 22:39:00,
2013-02-23 17:49:00,54.1,49.4,29.82,South,183,0.0,0.0,84,0.00,,,0.16,Wunderground v.1.15,2013-02-23 22:49:00,
2013-02-23 17:54:00,53.9,49.2,29.82,South,183,0.0,0.0,84,0.00,,,0.16,Wunderground v.1.15,2013-02-23 22:54:00,
2013-02-23 18:00:00,53.8,49.1,29.82,South,183,0.0,0.0,84,0.00,,,0.16,Wunderground v.1.15,2013-02-23 23:00:00,
2013-02-23 18:10:00,53.4,49.0,29.82,South,183,0.0,0.0,85,0.00,,,0.16,Wunderground v.1.15,2013-02-23 23:10:00,
2013-02-23 18:20:00,52.9,48.8,29.82,South,183,0.0,0.0,86,0.00,,,0.16,Wunderground v.1.15,2013-02-23 23:20:00,
2013-02-23 18:25:00,52.6,48.5,29.82,South,183,0.0,0.0,86,0.00,,,0.16,Wunderground v.1.15,2013-02-23 23:25:00,
2013-02-23 18:30:00,52.4,48.3,29.82,South,183,0.0,0.0,86,0.00,,,0.16,Wunderground v.1.15,2013-02-23 23:30:00,
2013-02-23 18:35:00,52.1,48.0,29.82,South,183,0.0,0.0,86,0.00,,,0.16,Wunderground v.1.15,2013-02-23 23:35:00,
2013-02-23 18:40:00,51.9,47.8,29.83,South,183,0.0,0.0,86,0.00,,,0.16,Wunderground v.1.15,2013-02-23 23:40:00,
2013-02-23 18:45:00,51.6,47.5,29.83,South,183,0.0,0.0,86,0.00,,,0.16,Wunderground v.1.15,2013-02-23 23:45:00,
2013-02-23 18:55:00,50.9,47.2,29.83,South,183,0.0,0.0,87,0.00,,,0.16,Wunderground v.1.15,2013-02-23 23:55:00,
2013-02-23 19:00:00,50.6,46.9,29.83,South,183,0.0,0.0,87,0.00,,,0.16,Wunderground v.1.15,2013-02-24 00:00:00,
2013-02-23 19:09:00,50.0,46.6,29.84,South,183,0.0,0.0,88,0.00,,,0.16,Wunderground v.1.15,2013-02-24 00:09:00,
2013-02-23 19:14:00,49.7,46.3,29.84,South,183,0.0,0.0,88,0.00,,,0.16,Wunderground v.1.15,2013-02-24 00:14:00,
2013-02-23 19:19:00,49.5,46.1,29.84,South,183,0.0,0.0,88,0.00,,,0.16,Wunderground v.1.15,2013-02-24 00:19:00,
2013-02-23 19:29:00,48.8,45.4,29.84,South,183,0.0,0.0,88,0.00,,,0.16,Wunderground v.1.15,2013-02-24 00:29:00,
2013-02-23 19:35:00,48.6,45.2,29.84,South,183,0.0,0.0,88,0.00,,,0.16,Wunderground v.1.15,2013-02-24 00:35:00,
2013-02-23 19:40:00,48.3,44.9,29.84,South,183,0.0,0.0,88,0.00,,,0.16,Wunderground v.1.15,2013-02-24 00:40:00,
2013-02-23 19:45:00,47.9,44.8,29.85,South,183,0.0,0.0,89,0.00,,,0.16,Wunderground v.1.15,2013-02-24 00:45:00,
2013-02-23 19:50:00,47.7,44.6,29.85,South,183,0.0,0.0,89,0.00,,,0.16,Wunderground v.1.15,2013-02-24 00:50:00,
2013-02-23 19:55:00,47.4,44.3,29.85,South,183,0.0,0.0,89,0.00,,,0.16,Wunderground v.1.15,2013-02-24 00:55:00,
2013-02-23 20:00:00,47.2,44.1,29.85,South,183,0.0,0.0,89,0.00,,,0.16,Wunderground v.1.15,2013-02-24 01:00:00,
2013-02-23 20:09:00,46.8,44.0,29.86,South,183,0.0,0.0,90,0.00,,,0.16,Wunderground v.1.15,2013-02-24 01:09:00,
2013-02-23 20:14:00,46.5,43.7,29.86,South,183,0.0,0.0,90,0.00,,,0.16,Wunderground v.1.15,2013-02-24 01:14:00,
2013-02-23 20:19:00,46.3,43.5,29.86,South,183,0.0,0.0,90,0.00,,,0.16,Wunderground v.1.15,2013-02-24 01:19:00,
2013-02-23 20:24:00,46.0,43.2,29.86,South,183,0.0,0.0,90,0.00,,,0.16,Wunderground v.1.15,2013-02-24 01:24:00,
2013-02-23 20:30:00,45.8,43.0,29.87,South,183,0.0,0.0,90,0.00,,,0.16,Wunderground v.1.15,2013-02-24 01:30:00,
2013-02-23 20:40:00,45.3,42.5,29.87,South,183,0.0,0.0,90,0.00,,,0.16,Wunderground v.1.15,2013-02-24 01:40:00,
2013-02-23 20:45:00,45.1,42.3,29.88,South,183,0.0,0.0,90,0.00,,,0.16,Wunderground v.1.15,2013-02-24 01:45:00,
2013-02-23 20:50:00,44.8,42.3,29.87,South,183,0.0,0.0,91,0.00,,,0.16,Wunderground v.1.15,2013-02-24 01:50:00,
2013-02-23 20:55:00,44.6,42.1,29.87,South,183,0.0,0.0,91,0.00,,,0.16,Wunderground v.1.15,2013-02-24 01:55:00,
2013-02-23 21:04:00,44.2,41.7,29.88,South,183,0.0,0.0,91,0.00,,,0.16,Wunderground v.1.15,2013-02-24 02:04:00,
2013-02-23 21:14:00,44.0,41.5,29.89,South,183,0.0,0.0,91,0.00,,,0.16,Wunderground v.1.15,2013-02-24 02:14:00,
2013-02-23 21:19:00,43.8,41.6,29.89,South,185,0.0,0.0,92,0.00,,,0.16,Wunderground v.1.15,2013-02-24 02:19:00,
2013-02-23 21:25:00,43.7,41.5,29.89,WSW,241,0.0,1.0,92,0.00,,,0.16,Wunderground v.1.15,2013-02-24 02:25:00,
2013-02-23 21:30:00,43.6,41.7,29.90,West,266,1.0,1.0,93,0.00,,,0.16,Wunderground v.1.15,2013-02-24 02:30:00,
2013-02-23 21:35:00,43.6,41.7,29.89,West,266,0.0,1.0,93,0.00,,,0.16,Wunderground v.1.15,2013-02-24 02:35:00,
2013-02-23 21:45:00,43.8,42.2,29.90,West,264,1.0,1.0,94,0.00,,,0.16,Wunderground v.1.15,2013-02-24 02:45:00,
2013-02-23 21:50:00,43.9,42.0,29.90,WSW,241,2.0,3.0,93,0.00,,,0.16,Wunderground v.1.15,2013-02-24 02:50:00,
2013-02-23 21:55:00,44.1,41.9,29.90,SW,221,1.0,3.0,92,0.00,,,0.16,Wunderground v.1.15,2013-02-24 02:55:00,
2013-02-23 22:04:00,44.4,41.9,29.90,SW,221,0.0,1.0,91,0.00,,,0.16,Wunderground v.1.15,2013-02-24 03:04:00,
2013-02-23 22:09:00,44.5,42.0,29.90,SW,221,0.0,0.0,91,0.00,,,0.16,Wunderground v.1.15,2013-02-24 03:09:00,
2013-02-23 22:19:00,44.5,41.5,29.92,WNW,288,1.0,4.0,89,0.00,,,0.16,Wunderground v.1.15,2013-02-24 03:19:00,
2013-02-23 22:25:00,44.7,40.8,29.93,West,273,3.0,6.0,86,0.00,,,0.16,Wunderground v.1.15,2013-02-24 03:25:00,
2013-02-23 22:30:00,45.0,40.1,29.92,WSW,244,4.0,4.0,83,0.00,,,0.16,Wunderground v.1.15,2013-02-24 03:30:00,
2013-02-23 22:35:00,45.1,40.2,29.92,WSW,244,2.0,4.0,83,0.00,,,0.16,Wunderground v.1.15,2013-02-24 03:35:00,
2013-02-23 22:40:00,45.2,40.7,29.91,WSW,244,0.0,0.0,84,0.00,,,0.16,Wunderground v.1.15,2013-02-24 03:40:00,
2013-02-23 22:45:00,45.1,40.9,29.91,WSW,244,0.0,0.0,85,0.00,,,0.16,Wunderground v.1.15,2013-02-24 03:45:00,
2013-02-23 22:55:00,44.9,40.7,29.91,WSW,244,0.0,0.0,85,0.00,,,0.16,Wunderground v.1.15,2013-02-24 03:55:00,
2013-02-23 23:04:00,44.3,40.1,29.91,WSW,244,0.0,0.0,85,0.00,,,0.16,Wunderground v.1.15,2013-02-24 04:04:00,
2013-02-23 23:09:00,44.0,39.5,29.91,WSW,244,0.0,0.0,84,0.00,,,0.16,Wunderground v.1.15,2013-02-24 04:09:00,
2013-02-23 23:15:00,43.6,39.1,29.92,WSW,244,0.0,0.0,84,0.00,,,0.16,Wunderground v.1.15,2013-02-24 04:15:00,
2013-02-23 23:20:00,43.0,38.8,29.92,WSW,244,0.0,0.0,85,0.00,,,0.16,Wunderground v.1.15,2013-02-24 04:20:00,
2013-02-23 23:30:00,42.2,38.3,29.92,WSW,244,0.0,0.0,86,0.00,,,0.16,Wunderground v.1.15,2013-02-24 04:30:00,
2013-02-23 23:35:00,41.8,37.9,29.92,SW,225,0.0,0.0,86,0.00,,,0.16,Wunderground v.1.15,2013-02-24 04:35:00,
2013-02-23 23:44:00,41.1,37.8,29.92,SW,225,0.0,0.0,88,0.00,,,0.16,Wunderground v.1.15,2013-02-24 04:44:00,
2013-02-23 23:49:00,40.7,37.1,29.92,SW,225,0.0,0.0,87,0.00,,,0.16,Wunderground v.1.15,2013-02-24 04:49:00,
2013-02-23 23:54:00,40.5,37.2,29.91,SW,225,0.0,0.0,88,0.00,,,0.16,Wunderground v.1.15,2013-02-24 04:54:00,